[[{"header":{"parameterUnit":"m.s-1","parameterCategory":1,"la1":30.2991,"la2":30.254,"lo1":-89.0895,"lo2":-89.0444,"dy":0.0017,"dx":0.0017,"nx":28,"ny":28,"refTime":"2023-09-04T21:00:00:Z","depth":0,"parameterNumber":2,"parameterNumberName":"U-component_of_WINDS"},"data":[0,0,0,0,0,0,0,0,0,0,0,0,0,0,0,0,0,0,0,0,0,0,0,0,0,0,0,0,0,0,0,0,0,0,0,0,0,0,0,0,0,0,0,0,0,0,0,0,0,0,0,0,0,0,0,0,0,0,-4.1211,-4.1212,0,-4.1319,-4.132,-4.1321,-4.1302,-4.13,-4.1298,-4.1297,-4.1405,-4.1409,-4.1414,0,0,0,0,0,0,0,0,0,0,0,0,0,-4.0986,-4.0991,-4.1211,-4.1213,-4.1214,-4.1319,-4.132,-4.1322,-4.1302,-4.13,-4.1298,-4.1296,-4.1403,-4.1409,-4.1414,0,0,0,0,0,0,0,0,0,0,0,0,0,-4.1088,-4.0992,-4.1211,-4.1217,-4.1219,-4.1319,-4.132,-4.1322,-4.1303,-4.13,-4.1297,-4.1295,-4.1401,-4.1408,-4.1415,-4.1515,0,0,-4.1436,-4.1439,0,0,0,0,0,0,0,0,-4.1082,-4.1096,-4.1215,-4.1217,-4.1219,-4.1294,-4.1281,-4.1387,-4.1304,-4.1271,-4.1296,-4.1293,-4.137,-4.1379,-4.1406,-4.152,-4.1525,-4.1437,-4.1441,-4.1444,-4.1446,0,0,0,0,0,0,0,-4.1075,-4.1092,-4.1254,-4.1216,-4.1219,-4.1214,-4.1225,-4.1301,-4.1335,-4.1274,-4.1272,-4.1286,-4.1371,-4.1399,-4.1408,-4.1526,-4.1437,-4.1443,-4.1447,-4.145,-4.1726,-4.1729,0,0,0,0,0,0,-4.1067,-4.1086,-4.125,-4.1257,-4.1142,-4.122,-4.1233,-4.1273,-4.1334,-4.1341,-4.1288,-4.1284,-4.1389,-4.14,-4.1412,-4.1531,-4.1444,-4.1451,-4.1455,-4.1723,-4.1727,-4.173,0,0,0,0,0,0,-4.1062,-4.1082,-4.1246,-4.1171,-4.1192,-4.1227,-4.1272,-4.1276,-4.1305,-4.1345,-4.1351,-4.1311,-4.1387,-4.1402,-4.1489,-4.1535,-4.1454,-4.146,-4.1719,-4.1724,-4.1728,-4.1772,0,0,0,0,0,0,-4.1056,-4.108,-4.1119,-4.1172,-4.1196,-4.1322,-4.1275,-4.1281,-4.1317,-4.1314,-4.1368,-4.1374,-4.1386,-4.1479,-4.1496,-4.1543,-4.1465,-4.1715,-4.1721,-4.1727,-4.1766,-4.1777,-4.1787,0,0,0,0,0,-4.1048,-4.1127,-4.1121,-4.1141,-4.1245,-4.1325,-4.1338,-4.135,-4.1321,-4.136,-4.1386,-4.1373,-4.1528,-4.1488,-4.1507,-4.1557,-4.1712,-4.172,-4.1726,-4.1762,-4.1775,-4.1786,0,0,0,0,0,0,-4.1077,-4.1134,-4.1128,-4.1227,-4.1271,-4.1322,-4.1371,-4.1365,-4.1418,-4.1412,-4.1424,-4.1437,-4.1525,-4.155,-4.1505,-4.1656,-4.1616,-4.1627,-4.1636,-4.1649,-4.1659,-4.165,-4.1471,0,0,0,0,0,-4.1095,-4.1156,-4.1202,-4.1285,-4.1307,-4.1336,-4.1371,-4.1376,-4.1422,-4.1441,-4.1473,-4.1518,-4.1576,-4.1614,-4.1671,-4.1771,-4.1781,-4.1814,-4.1824,-4.1833,-4.1841,-4.1894,-4.1909,-4.1753,-4.1753,-4.1753,0,0,-4.1133,-4.1172,-4.1209,-4.1292,-4.1327,-4.1388,-4.1351,-4.1418,-4.1463,-4.1451,-4.1534,-4.156,-4.161,-4.1704,-4.1747,-4.1728,-4.1887,-4.1842,-4.1848,-4.1852,-4.1903,-4.1918,-4.1931,-4.1758,-4.1757,-4.1757,0,0,-4.1232,-4.1269,-4.1341,-4.1377,-4.1431,-4.1449,-4.1466,-4.1518,-4.1534,-4.1618,-4.161,-4.1664,-4.1765,-4.1801,-4.1832,-4.1946,-4.1935,-4.1964,-4.2016,-4.2067,-4.208,-4.209,-4.2129,-4.2142,-4.1973,-4.1973,-4.1973,0,-4.1272,-4.1365,-4.1378,-4.1446,-4.1482,-4.1474,-4.1546,-4.1581,-4.165,-4.1674,-4.1652,-4.1778,-4.1812,-4.1913,-4.194,-4.1967,-4.1986,-4.1956,-4.2077,-4.2088,-4.2098,-4.2135,-4.2149,-4.1976,-4.1976,-4.1976,-4.1975,0,-4.141,-4.1475,-4.1526,-4.1593,-4.1635,-4.1705,-4.1728,-4.1769,-4.1771,-4.1791,-4.1876,-4.1917,-4.198,-4.2006,-4.2008,-4.2107,-4.2093,-4.2074,-4.2033,-4.2116,-4.215,-4.2164,-4.198,-4.1979,-4.1978,-4.1978,0,0,-4.153,-4.1603,-4.1622,-4.1651,-4.171,-4.176,-4.1829,-4.1892,-4.1925,-4.1974,-4.2031,-4.2117,-4.21,-4.2135,-4.2142,-4.2188,-4.2272,-4.2163,-4.2165,-4.218,-4.238,-4.2392,-4.2408,-4.2267,-4.227,-4.2272,-4.2375,0,-4.1633,-4.1755,-4.1768,-4.1876,-4.1935,-4.1929,-4.1989,-4.2031,-4.2052,-4.2104,-4.2127,-4.2187,-4.2161,-4.2182,-4.2227,-4.2252,-4.2312,-4.2246,-4.2318,-4.232,-4.2302,-4.2426,-4.2439,-4.2535,-4.2389,-4.2391,-4.2393,0,-4.1769,-4.1821,-4.1935,-4.1984,-4.201,-4.2063,-4.2121,-4.2172,-4.2219,-4.2231,-4.2271,-4.2272,-4.2342,-4.2301,-4.2396,-4.235,-4.2381,-4.2398,-4.2402,-4.2407,-4.2359,-4.2432,-4.2566,-4.2579,-4.2415,-4.2413,-4.2411,0,-4.1842,-4.1941,-4.2021,-4.2047,-4.2107,-4.2145,-4.2172,-4.2216,-4.2253,-4.2303,-4.2327,-4.2385,-4.2416,-4.2461,-4.2477,-4.2446,-4.2571,-4.2532,-4.2581,-4.2581,-4.2606,-4.2603,-4.2744,-4.263,-4.263,-4.263,-4.263,0,-4.1954,-4.2023,-4.2054,-4.2103,-4.218,-4.2196,-4.2271,-4.2296,-4.2336,-4.2389,-4.2388,-4.2438,-4.2458,-4.2511,-4.2524,-4.26,-4.2615,-4.2625,-4.2627,-4.2624,-4.2622,-4.2642,-4.2634,-4.2634,-4.2633,-4.2632,-4.2631,0,-4.2047,-4.2071,-4.2157,-4.2208,-4.2222,-4.2276,-4.2319,-4.2366,-4.2387,-4.2454,-4.247,-4.2503,-4.2564,-4.2586,-4.2661,-4.267,-4.2757,-4.2755,-4.2741,-4.2741,-4.2788,-4.2783,-4.2944,-4.2965,-4.284,-4.2841,-4.2842,0,-4.2116,-4.2169,-4.2225,-4.226,-4.2288,-4.2346,-4.2383,-4.2401,-4.2439,-4.2497,-4.2536,-4.2598,-4.2648,-4.2747,-4.2776,-4.2834,-4.2831,-4.2884,-4.284,-4.2834,-4.2829,-4.2825,-4.2829,-4.2891,-4.2893,-4.2894,-4.2894,0,-4.2234,-4.2243,-4.2297,-4.2355,-4.2399,-4.2446,-4.249,-4.252,-4.2543,-4.2586,-4.265,-4.2689,-4.2765,-4.2826,-4.2884,-4.2911,-4.2906,-4.2909,-4.2923,-4.2918,-4.2907,-4.2911,-4.2761,-4.2904,-4.2903,-4.2902,-4.2902,-4.2902,-4.2316,-4.2362,-4.2408,-4.2467,-4.2503,-4.2545,-4.2591,-4.2617,-4.2671,-4.2734,-4.2742,-4.2809,-4.2854,-4.2932,-4.2962,-4.3015,-4.3,-4.3021,-4.3026,-4.303,-4.3032,-4.2901,-4.3026,-4.3025,-4.3025,-4.3025,-4.3025,0,-4.2432,-4.2461,-4.2516,-4.2579,-4.2625,-4.2618,-4.2667,-4.2706,-4.2766,-4.2809,-4.2858,-4.293,-4.2989,-4.3023,-4.3081,-4.3117,-4.3116,-4.3131,-4.3127,-4.3133,-4.3043,-4.3024,-4.3131,-4.3131,-4.3131,-4.3131,-4.3131,-4.3131,-4.2498,-4.2575,-4.2589,-4.2683,-4.2712,-4.2779,-4.2807,-4.2845,-4.2879,-4.296,-4.3008,-4.3031,-4.307,-4.3131,-4.3184,-4.3193,-4.3213,-4.323,-4.3236,-4.3151,-4.314,-4.3129,-4.3111,-4.3235,-4.3235,-4.3321,-4.3322,-4.3323]},{"header":{"parameterUnit":"m.s-1","parameterCategory":1,"la1":30.2991,"la2":30.254,"lo1":-89.0895,"lo2":-89.0444,"dy":0.0017,"dx":0.0017,"nx":28,"ny":28,"refTime":"2023-09-04T21:00:00:Z","depth":0,"parameterNumber":3,"parameterNumberName":"V-component_of_WINDS"},"data":[0,0,0,0,0,0,0,0,0,0,0,0,0,0,0,0,0,0,0,0,0,0,0,0,0,0,0,0,0,0,0,0,0,0,0,0,0,0,0,0,0,0,0,0,0,0,0,0,0,0,0,0,0,0,0,0,0,0,3.9775,3.9775,0,3.9801,3.9801,3.9801,3.9741,3.9739,3.9737,3.9735,3.9758,3.9761,3.9763,0,0,0,0,0,0,0,0,0,0,0,0,0,3.9671,3.9673,3.9775,3.9775,3.9776,3.9801,3.9801,3.9801,3.9741,3.9739,3.9737,3.9734,3.9757,3.976,3.9763,0,0,0,0,0,0,0,0,0,0,0,0,0,3.9708,3.9674,3.9775,3.9749,3.9747,3.9801,3.9801,3.9801,3.9742,3.9739,3.9736,3.9733,3.9756,3.976,3.9763,3.9843,0,0,3.9774,3.9776,0,0,0,0,0,0,0,0,3.9706,3.9712,3.9752,3.9751,3.9749,3.9765,3.9772,3.9815,3.9742,3.9744,3.9735,3.9732,3.9762,3.9765,3.9776,3.9844,3.9845,3.9775,3.9777,3.9778,3.9779,0,0,0,0,0,0,0,3.9704,3.9711,3.9785,3.9753,3.9751,3.9735,3.9737,3.978,3.9769,3.9743,3.9739,3.9743,3.9761,3.9773,3.9776,3.9845,3.9775,3.9778,3.978,3.9781,3.9977,3.998,0,0,0,0,0,0,3.9705,3.9709,3.9784,3.9786,3.972,3.9739,3.9741,3.9762,3.9768,3.9766,3.9745,3.974,3.9768,3.9772,3.9777,3.9868,3.9778,3.9782,3.9784,3.9974,3.9978,3.9981,0,0,0,0,0,0,3.9703,3.9712,3.9783,3.9746,3.9754,3.9744,3.9768,3.9764,3.9776,3.977,3.9767,3.976,3.9766,3.9772,3.9827,3.9868,3.9783,3.9787,3.997,3.9975,3.9979,4.0053,0,0,0,0,0,0,3.97,3.9712,3.9743,3.9748,3.9756,3.9834,3.9771,3.9767,3.9783,3.9776,3.9783,3.9781,3.9764,3.9822,3.983,3.9872,3.9789,3.9966,3.9972,3.9978,4.0046,4.0059,4.007,0,0,0,0,0,3.9697,3.9762,3.9745,3.9754,3.9795,3.9836,3.9841,3.9821,3.9787,3.9817,3.9812,3.9781,3.9863,3.9828,3.9837,3.988,3.9964,3.9971,3.9977,4.0041,4.0057,4.007,0,0,0,0,0,0,3.9761,3.9762,3.9743,3.9812,3.9825,3.9826,3.9863,3.9839,3.9861,3.9853,3.9827,3.9829,3.9888,3.989,3.9851,3.9956,3.9907,3.9916,3.9953,3.9967,3.9979,3.9976,3.9792,0,0,0,0,0,3.9784,3.9818,3.9817,3.9878,3.9885,3.9874,3.9891,3.9875,3.9886,3.9891,3.9891,3.9902,3.993,3.9949,3.9975,4.0047,4.0047,4.0082,4.0093,4.0103,4.011,4.0147,4.0162,4.0003,4.0003,4.0003,0,0,3.983,3.9835,3.9858,3.9891,3.9899,3.9934,3.9878,3.9918,3.9943,3.9897,3.9948,3.9948,3.9959,4.0023,4.0051,4.0026,4.0154,4.0112,4.012,4.0122,4.0155,4.017,4.0184,4.0008,4.0007,4.0007,0,0,3.9931,3.994,3.999,4.0,4.0013,4.0005,4.0017,4.0023,4.0021,4.0073,4.0038,4.0067,4.0117,4.0126,4.0137,4.0243,4.0214,4.0252,4.0313,4.0349,4.0361,4.0372,4.0407,4.0421,4.026,4.026,4.026,0,3.9986,4.0039,4.0019,4.0061,4.0076,4.0037,4.0087,4.0097,4.0118,4.0128,4.0101,4.0162,4.0167,4.0231,4.0256,4.0268,4.0279,4.025,4.0361,4.0372,4.0382,4.0415,4.0429,4.0264,4.0264,4.0263,4.0263,0,4.0105,4.0142,4.0181,4.0203,4.0222,4.0268,4.0254,4.0276,4.0259,4.0254,4.0306,4.0311,4.0336,4.035,4.0334,4.0412,4.0396,4.0366,4.0315,4.0401,4.0432,4.0445,4.0271,4.0269,4.0268,4.0267,0,0,4.0246,4.0257,4.0271,4.028,4.0292,4.0319,4.0363,4.0389,4.0407,4.0423,4.0458,4.0501,4.0473,4.0486,4.047,4.0502,4.0583,4.0467,4.0467,4.0486,4.0666,4.0687,4.0703,4.0565,4.0567,4.0569,4.0665,0,4.0344,4.042,4.0404,4.0478,4.0511,4.0475,4.0513,4.0523,4.052,4.0546,4.0542,4.0572,4.0533,4.0541,4.0571,4.0566,4.0618,4.056,4.0594,4.0596,4.059,4.0719,4.0742,4.0832,4.0677,4.0679,4.068,0,4.0469,4.049,4.0567,4.0573,4.0586,4.0621,4.0643,4.0669,4.068,4.0675,4.069,4.0668,4.071,4.0662,4.0718,4.0679,4.0693,4.0693,4.0696,4.0696,4.0641,4.072,4.086,4.0873,4.07,4.0698,4.0697,0,4.056,4.0609,4.0661,4.067,4.0679,4.0703,4.0708,4.0717,4.0733,4.0752,4.0762,4.0786,4.0798,4.0816,4.0801,4.0768,4.0859,4.081,4.0854,4.0855,4.0873,4.0871,4.1014,4.0887,4.0886,4.0886,4.0886,0,4.067,4.0719,4.0702,4.0734,4.0786,4.0767,4.0819,4.082,4.0828,4.0858,4.0829,4.0858,4.0837,4.0864,4.0852,4.0899,4.0906,4.0902,4.0897,4.0903,4.0903,4.0909,4.0901,4.089,4.0889,4.0888,4.0888,0,4.0781,4.0772,4.0826,4.083,4.0832,4.0871,4.0874,4.0903,4.0897,4.0936,4.0944,4.0935,4.0965,4.0952,4.0984,4.0976,4.1036,4.1025,4.1032,4.1028,4.1072,4.1067,4.1222,4.124,4.1103,4.1105,4.1106,0,4.085,4.0886,4.0895,4.0914,4.092,4.0951,4.0968,4.095,4.0969,4.0984,4.1011,4.1039,4.1059,4.1109,4.1104,4.1128,4.1116,4.1168,4.1119,4.1123,4.1113,4.111,4.1113,4.1177,4.1179,4.118,4.1181,0,4.0974,4.0967,4.0993,4.1017,4.1038,4.1056,4.1071,4.1088,4.1071,4.1093,4.1124,4.114,4.1173,4.12,4.1221,4.1224,4.1199,4.1197,4.1208,4.1213,4.1214,4.1212,4.1056,4.1193,4.1192,4.1191,4.119,4.119,4.1064,4.1094,4.1104,4.1133,4.1143,4.1158,4.1185,4.1184,4.1209,4.1235,4.1223,4.1258,4.1268,4.1294,4.1301,4.1327,4.1306,4.1323,4.1326,4.133,4.1335,4.1213,4.1331,4.1331,4.133,4.133,4.133,0,4.1183,4.1189,4.1216,4.1239,4.1261,4.1238,4.1254,4.1274,4.1305,4.1317,4.1338,4.1373,4.1399,4.1398,4.1422,4.1443,4.1432,4.1449,4.1446,4.1447,4.1353,4.134,4.1458,4.1458,4.1458,4.1458,4.1458,4.1458,4.1248,4.1297,4.1293,4.1346,4.135,4.1385,4.1396,4.1409,4.1418,4.1458,4.148,4.1479,4.1485,4.1509,4.1532,4.153,4.1539,4.1561,4.1555,4.1467,4.1454,4.1442,4.1429,4.1564,4.1564,4.1646,4.1647,4.1648]}]]